Hourly Weather Valencia

Today, 10 July, Friday

Time Temperature Precipitation Wind Pressure Humidity
00:00 +21°C° 0 mm 0 mps 718 mmHg 95%
01:00 +21°C° 0 mm 0 mps 718 mmHg 94%
02:00 +20°C° 0 mm 0 mps 718 mmHg 94%
03:00 +20°C° 0 mm 0 mps 718 mmHg 94%
04:00 +20°C° 0 mm 0 mps 718 mmHg 94%
05:00 +21°C° 0 mm 0 mps 718 mmHg 92%
06:00 +22°C° 0 mm 0 mps 718 mmHg 91%
07:00 +23°C° 0 mm 0 mps 719 mmHg 89%
08:00 +27°C° 0 mm 1 mps 719 mmHg 80%
09:00 +29°C° 0 mm 1 mps 719 mmHg 71%
10:00 +30°C° 0 mm 1 mps 720 mmHg 62%
11:00 +31°C° 0.1 mm 1 mps 719 mmHg 60%
12:00 +31°C° 0.1 mm 1 mps 719 mmHg 58%
13:00 +32°C° 0.1 mm 1 mps 718 mmHg 56%
14:00 +31°C° 0.6 mm 1 mps 717 mmHg 65%
15:00 +29°C° 0.6 mm 2 mps 717 mmHg 74%
16:00 +28°C° 0.6 mm 2 mps 716 mmHg 83%
17:00 +27°C° 1.1 mm 2 mps 716 mmHg 86%
18:00 +26°C° 1.1 mm 1 mps 717 mmHg 90%
19:00 +24°C° 1.1 mm 1 mps 717 mmHg 94%
20:00 +24°C° 0.1 mm 1 mps 718 mmHg 94%
21:00 +24°C° 0.1 mm 1 mps 718 mmHg 94%
22:00 +23°C° 0.1 mm 1 mps 718 mmHg 95%
23:00 +21°C° 0 mm 0 mps 718 mmHg 94%

Tomorrow, 11 July, Saturday

Time Temperature Precipitation Wind Pressure Humidity
00:00 +21°C° 0 mm 0 mps 718 mmHg 94%
01:00 +21°C° 0 mm 0 mps 717 mmHg 94%
02:00 +21°C° 0 mm 0 mps 717 mmHg 94%
03:00 +21°C° 0 mm 0 mps 717 mmHg 94%
04:00 +21°C° 0 mm 0 mps 717 mmHg 94%
05:00 +21°C° 0 mm 0 mps 717 mmHg 93%
06:00 +22°C° 0 mm 0 mps 718 mmHg 91%
07:00 +23°C° 0 mm 0 mps 718 mmHg 90%
08:00 +24°C° 0.7 mm 0 mps 718 mmHg 86%
09:00 +26°C° 0.7 mm 0 mps 719 mmHg 82%
10:00 +27°C° 0.7 mm 0 mps 719 mmHg 78%
11:00 +30°C° 1.1 mm 1 mps 718 mmHg 75%
12:00 +30°C° 1.1 mm 1 mps 718 mmHg 73%
13:00 +31°C° 1.1 mm 1 mps 717 mmHg 71%
14:00 +30°C° 1 mm 1 mps 717 mmHg 75%
15:00 +29°C° 1 mm 1 mps 716 mmHg 80%
16:00 +28°C° 1 mm 2 mps 715 mmHg 85%
17:00 +27°C° 0.3 mm 1 mps 716 mmHg 88%
18:00 +26°C° 0.3 mm 1 mps 716 mmHg 92%
19:00 +24°C° 0.3 mm 1 mps 717 mmHg 95%
20:00 +24°C° 0.3 mm 1 mps 717 mmHg 96%
21:00 +24°C° 0.3 mm 1 mps 718 mmHg 96%
22:00 +24°C° 0.3 mm 1 mps 718 mmHg 96%
23:00 +22°C° 0.3 mm 0 mps 718 mmHg 96%

Day after tomorrow, 12 July, Sunday

Time Temperature Precipitation Wind Pressure Humidity
00:00 +22°C° 0.3 mm 0 mps 718 mmHg 96%
01:00 +22°C° 0.3 mm 0 mps 717 mmHg 96%
02:00 +21°C° 0.2 mm 0 mps 717 mmHg 96%
03:00 +21°C° 0.2 mm 0 mps 717 mmHg 95%
04:00 +21°C° 0.2 mm 0 mps 717 mmHg 95%
05:00 +21°C° 0.1 mm 0 mps 718 mmHg 94%
06:00 +22°C° 0.1 mm 0 mps 718 mmHg 94%
07:00 +24°C° 0.1 mm 1 mps 718 mmHg 93%
08:00 +25°C° 0.3 mm 1 mps 719 mmHg 88%
09:00 +27°C° 0.3 mm 1 mps 719 mmHg 83%
10:00 +28°C° 0.3 mm 1 mps 719 mmHg 78%
11:00 +28°C° 1.4 mm 2 mps 718 mmHg 79%
12:00 +29°C° 1.4 mm 2 mps 718 mmHg 81%
13:00 +29°C° 1.4 mm 2 mps 717 mmHg 82%
14:00 +29°C° 1.7 mm 2 mps 717 mmHg 83%
15:00 +28°C° 1.7 mm 1 mps 716 mmHg 84%
16:00 +28°C° 1.7 mm 1 mps 716 mmHg 85%
17:00 +27°C° 0.8 mm 1 mps 716 mmHg 87%
18:00 +26°C° 0.8 mm 1 mps 717 mmHg 90%
19:00 +25°C° 0.8 mm 1 mps 717 mmHg 92%
20:00 +22°C° 0.2 mm 0 mps 718 mmHg 92%
21:00 +22°C° 0.2 mm 0 mps 718 mmHg 92%
22:00 +22°C° 0.2 mm 0 mps 719 mmHg 93%
23:00 +21°C° 0 mm 0 mps 718 mmHg 93%

13 July, Monday

Time Temperature Precipitation Wind Pressure Humidity
00:00 +21°C° 0 mm 0 mps 718 mmHg 93%
01:00 +21°C° 0 mm 0 mps 717 mmHg 93%
02:00 +21°C° 0 mm 0 mps 717 mmHg 93%
03:00 +21°C° 0 mm 0 mps 717 mmHg 94%
04:00 +20°C° 0 mm 0 mps 717 mmHg 94%
05:00 +21°C° 0 mm 0 mps 718 mmHg 93%
06:00 +22°C° 0 mm 0 mps 718 mmHg 91%
07:00 +23°C° 0 mm 0 mps 719 mmHg 90%
08:00 +27°C° 0 mm 1 mps 719 mmHg 81%
09:00 +29°C° 0 mm 1 mps 719 mmHg 71%
10:00 +30°C° 0 mm 1 mps 719 mmHg 61%
11:00 +31°C° 0 mm 1 mps 719 mmHg 59%
12:00 +31°C° 0 mm 2 mps 718 mmHg 56%
13:00 +32°C° 0 mm 2 mps 718 mmHg 54%
14:00 +31°C° 0.1 mm 2 mps 718 mmHg 60%
15:00 +30°C° 0.1 mm 1 mps 717 mmHg 66%
16:00 +30°C° 0.1 mm 1 mps 717 mmHg 72%
17:00 +28°C° 0.2 mm 1 mps 717 mmHg 79%
18:00 +26°C° 0.2 mm 1 mps 717 mmHg 87%
19:00 +24°C° 0.2 mm 1 mps 718 mmHg 95%
20:00 +24°C° 0.1 mm 1 mps 718 mmHg 96%
21:00 +24°C° 0.1 mm 1 mps 718 mmHg 96%
22:00 +24°C° 0.1 mm 1 mps 719 mmHg 97%
23:00 +24°C° 0 mm 1 mps 718 mmHg 97%

14 July, Tuesday

Time Temperature Precipitation Wind Pressure Humidity
00:00 +24°C° 0 mm 1 mps 718 mmHg 97%
01:00 +24°C° 0 mm 1 mps 718 mmHg 97%
02:00 +21°C° 0.3 mm 0 mps 718 mmHg 97%
03:00 +21°C° 0.3 mm 0 mps 718 mmHg 96%
04:00 +21°C° 0.3 mm 0 mps 718 mmHg 96%
05:00 +24°C° 0.1 mm 1 mps 718 mmHg 95%
06:00 +24°C° 0.1 mm 1 mps 719 mmHg 94%
07:00 +24°C° 0.1 mm 1 mps 719 mmHg 94%
08:00 +25°C° 0 mm 1 mps 719 mmHg 89%
09:00 +26°C° 0 mm 1 mps 720 mmHg 84%
10:00 +27°C° 0 mm 2 mps 720 mmHg 79%
11:00 +28°C° 0.1 mm 2 mps 720 mmHg 76%
12:00 +29°C° 0.1 mm 2 mps 719 mmHg 72%
13:00 +30°C° 0.1 mm 2 mps 719 mmHg 68%
14:00 +29°C° 0.4 mm 1 mps 718 mmHg 71%
15:00 +29°C° 0.4 mm 1 mps 718 mmHg 74%
16:00 +28°C° 0.4 mm 1 mps 717 mmHg 76%
17:00 +27°C° 0.1 mm 1 mps 717 mmHg 83%
18:00 +25°C° 0.1 mm 1 mps 718 mmHg 89%
19:00 +24°C° 0.1 mm 1 mps 718 mmHg 96%
20:00 +24°C° 0 mm 1 mps 718 mmHg 95%
21:00 +24°C° 0 mm 1 mps 718 mmHg 95%
22:00 +23°C° 0 mm 1 mps 719 mmHg 95%
23:00 +21°C° 0 mm 0 mps 718 mmHg 95%

15 July, Wednesday

Time Temperature Precipitation Wind Pressure Humidity
00:00 +21°C° 0 mm 0 mps 718 mmHg 95%
01:00 +21°C° 0 mm 0 mps 717 mmHg 95%
02:00 +21°C° 0 mm 0 mps 717 mmHg 95%
03:00 +20°C° 0 mm 0 mps 717 mmHg 95%
04:00 +20°C° 0 mm 0 mps 717 mmHg 95%
05:00 +21°C° 0 mm 0 mps 718 mmHg 93%
06:00 +22°C° 0 mm 0 mps 718 mmHg 92%
07:00 +23°C° 0 mm 0 mps 719 mmHg 91%
08:00 +24°C° 0 mm 0 mps 719 mmHg 85%
09:00 +27°C° 0 mm 1 mps 719 mmHg 80%
10:00 +28°C° 0 mm 1 mps 719 mmHg 74%
11:00 +29°C° 0.5 mm 1 mps 719 mmHg 73%
12:00 +29°C° 0.5 mm 1 mps 718 mmHg 73%
13:00 +30°C° 0.5 mm 2 mps 718 mmHg 72%
14:00 +29°C° 0.7 mm 1 mps 717 mmHg 76%
15:00 +28°C° 0.7 mm 1 mps 717 mmHg 81%
16:00 +27°C° 0.7 mm 1 mps 716 mmHg 85%
17:00 +26°C° 0.4 mm 1 mps 716 mmHg 88%
18:00 +25°C° 0.4 mm 1 mps 716 mmHg 91%
19:00 +22°C° 0.4 mm 0 mps 717 mmHg 95%
20:00 +22°C° 0.3 mm 0 mps 717 mmHg 94%
21:00 +21°C° 0.3 mm 0 mps 717 mmHg 94%
22:00 +21°C° 0.3 mm 0 mps 718 mmHg 94%
23:00 +21°C° 0.2 mm 0 mps 718 mmHg 94%
Show more